GW0795 Weather Reports


time (UTC)temp
C
wind
direction
speed
KPH
gust
KPH
rain 1hr
cm
rain 24hr
cm
rain mn
cm
humidity
%
barometer
mb
20260906195006 20 292 4.8 19.3 0.00 0.00 0.00 56 1015.8
20260906194517 20 290 4.8 19.3 0.00 0.00 0.00 55 1015.7
20260906194011 20 9 6.4 16.1 0.00 0.00 0.00 55 1015.8
20260906193512 20 279 3.2 16.1 0.00 0.00 0.00 57 1015.8
20260906193020 20 350 3.2 20.9 0.00 0.00 0.00 56 1015.9
20260906192511 20 258 9.7 20.9 0.00 0.00 0.00 57 1015.9
20260906192013 20 48 6.4 16.1 0.00 0.00 0.00 57 1016.0
20260906191518 20 311 8.0 12.9 0.00 0.00 0.00 57 1016.0
20260906191011 19 360 3.2 16.1 0.00 0.00 0.00 55 1016.1
20260906190513 20 52 4.8 16.1 0.00 0.00 0.00 57 1016.1
20260906190007 19 46 4.8 17.7 0.00 0.00 0.00 57 1016.2
20260906185506 19 348 3.2 17.7 0.00 0.00 0.00 57 1016.2
20260906185007 19 342 8.0 17.7 0.00 0.00 0.00 59 1016.2
20260906184511 19 24 4.8 14.5 0.00 0.00 0.00 60 1016.2
20260906184009 19 290 8.0 14.5 0.00 0.00 0.00 58 1016.2
20260906183511 19 308 6.4 14.5 0.00 0.00 0.00 59 1016.2
20260906183017 19 32 3.2 6.4 0.00 0.00 0.00 58 1016.2
20260906182513 19 304 1.6 9.7 0.00 0.00 0.00 62 1016.2
20260906182011 18 294 3.2 12.9 0.00 0.00 0.00 63 1016.1
20260906181532 18 335 3.2 12.9 0.00 0.00 0.00 64 1016.1
20260906181014 17 284 4.8 9.7 0.00 0.00 0.00 67 1016.1
20260906180513 17 5 3.2 11.3 0.00 0.00 0.00 69 1016.0
20260906180027 17 316 3.2 11.3 0.00 0.00 0.00 68 1016.1
20260906175513 16 313 4.8 11.3 0.00 0.00 0.00 72 1016.2
20260906175018 16 275 3.2 11.3 0.00 0.00 0.00 73 1016.3
20260906174513 16 262 4.8 11.3 0.00 0.00 0.00 73 1016.4
20260906174008 16 277 3.2 11.3 0.00 0.00 0.00 71 1016.5
20260906173508 16 339 1.6 9.7 0.00 0.00 0.00 71 1016.5
20260906173012 16 290 3.2 9.7 0.00 0.00 0.00 72 1016.5
20260906172511 16 321 3.2 6.4 0.00 0.00 0.00 72 1016.6
20260906172015 16 270 1.6 6.4 0.00 0.00 0.00 72 1016.6
20260906171523 16 293 3.2 9.7 0.00 0.00 0.00 72 1016.7
20260906171016 16 307 4.8 9.7 0.00 0.00 0.00 71 1016.7
20260906170514 16 293 3.2 6.4 0.00 0.00 0.00 72 1016.6
20260906170027 16 329 1.6 6.4 0.00 0.00 0.00 72 1016.6
20260906165514 15 286 1.6 9.7 0.00 0.00 0.00 72 1016.7
20260906165016 15 298 3.2 9.7 0.00 0.00 0.00 73 1016.8
20260906164530 16 277 3.2 6.4 0.00 0.00 0.00 71 1016.8
20260906164016 16 330 0.0 3.2 0.00 0.00 0.00 72 1016.8
20260906163515 15 5 1.6 3.2 0.00 0.00 0.00 74 1016.8
20260906163020 15 352 1.6 4.8 0.00 0.00 0.00 75 1016.8
20260906162508 15 135 3.2 6.4 0.00 0.00 0.00 73 1016.8
20260906162011 15 103 3.2 6.4 0.00 0.00 0.00 75 1016.8
20260906161518 15 116 3.2 4.8 0.00 0.00 0.00 75 1016.8
20260906161015 15 71 1.6 4.8 0.00 0.00 0.00 76 1016.7
20260906160514 15 42 1.6 4.8 0.00 0.00 0.00 76 1016.7
20260906160035 15 124 3.2 6.4 0.00 0.00 0.00 77 1016.6
20260906155512 14 25 1.6 6.4 0.00 0.00 0.00 77 1016.6
20260906155020 14 329 3.2 4.8 0.00 0.00 0.00 77 1016.5
20260906154505 15 9 1.6 8.0 0.00 0.00 0.00 77 1016.4
20260906154004 14 352 1.6 8.0 0.00 0.00 0.00 78 1016.3
20260906153504 14 46 1.6 6.4 0.00 0.00 0.00 79 1016.3
20260906153012 14 352 4.8 6.4 0.00 0.00 0.00 79 1016.3
20260906152509 14 88 3.2 4.8 0.00 0.00 0.00 79 1016.4
20260906152008 14 22 1.6 6.4 0.00 0.00 0.00 79 1016.3
20260906151515 13 339 1.6 6.4 0.00 0.00 0.00 79 1016.3
20260906151011 13 22 0.0 6.4 0.00 0.00 0.00 80 1016.3
20260906150512 13 352 3.2 6.4 0.00 0.00 0.00 81 1016.2
20260906150002 13 360 1.6 4.8 0.00 0.00 0.00 82 1016.2
20260906145501 12 92 0.0 0.0 0.00 0.00 0.00 83 1016.3
20260906145004 12 92 0.0 0.0 0.00 0.00 0.00 83 1016.2
20260906144506 12 92 0.0 0.0 0.00 0.00 0.00 83 1016.2
20260906144006 12 92 0.0 0.0 0.00 0.00 0.00 85 1016.4
20260906143506 11 92 0.0 0.0 0.00 0.00 0.00 86 1016.5
20260906143008 11 92 0.0 0.0 0.00 0.00 0.00 86 1016.5
20260906142512 11 92 0.0 0.0 0.00 0.00 0.00 86 1016.4
20260906142006 11 92 0.0 0.0 0.00 0.00 0.00 86 1016.4
20260906141513 11 92 0.0 0.0 0.00 0.00 0.00 86 1016.4
20260906141012 11 92 0.0 0.0 0.00 0.00 0.00 86 1016.4
20260906140512 11 92 0.0 0.0 0.00 0.00 0.00 87 1016.3
20260906140038 11 92 0.0 0.0 0.00 0.00 0.00 87 1016.5
20260906135512 11 92 0.0 0.0 0.00 0.00 0.00 88 1016.3
20260906135013 11 92 0.0 1.6 0.00 0.00 0.00 87 1016.3
20260906134528 11 92 0.0 1.6 0.00 0.00 0.00 88 1016.2
20260906134004 11 92 0.0 3.2 0.00 0.00 0.00 88 1016.1
20260906133505 11 98 0.0 3.2 0.00 0.00 0.00 87 1016.2
20260906133006 11 98 0.0 3.2 0.00 0.00 0.00 87 1016.1
20260906132506 11 98 0.0 3.2 0.00 0.00 0.00 87 1016.1
20260906132007 11 98 0.0 3.2 0.00 0.00 0.00 87 1016.2
20260906131516 11 98 0.0 6.4 0.00 0.00 0.00 87 1016.2
20260906131009 11 98 0.0 6.4 0.00 0.00 0.00 86 1016.2
20260906130508 11 94 1.6 4.8 0.00 0.00 0.00 87 1016.2
20260906130033 11 98 0.0 3.2 0.00 0.00 0.00 87 1016.2
20260906125509 12 26 0.0 0.0 0.00 0.00 0.00 87 1016.2
20260906125015 12 26 0.0 0.0 0.00 0.00 0.00 87 1016.2
20260906124526 12 5 0.0 0.0 0.00 0.00 0.00 87 1016.3
20260906124016 12 44 0.0 0.0 0.00 0.00 0.00 87 1016.3
20260906123512 12 40 0.0 1.6 0.00 0.00 0.00 87 1016.3
20260906123034 12 49 0.0 3.2 0.00 0.00 0.00 87 1016.4
20260906122504 12 44 0.0 3.2 0.00 0.00 0.00 88 1016.3
20260906122004 12 31 0.0 1.6 0.00 0.00 0.00 88 1016.3
20260906121507 12 352 0.0 0.0 0.00 0.00 0.00 88 1016.2
20260906121008 12 352 0.0 0.0 0.00 0.00 0.00 88 1016.2
20260906120508 12 352 0.0 0.0 0.00 0.00 0.00 87 1016.2
20260906120016 12 352 0.0 0.0 0.00 0.00 0.00 87 1016.3
20260906115512 12 352 0.0 0.0 0.00 0.00 0.00 87 1016.2
20260906115011 12 352 0.0 0.0 0.00 0.00 0.00 87 1016.2
20260906114519 12 352 0.0 0.0 0.00 0.00 0.00 87 1016.3
20260906114016 12 49 0.0 0.0 0.00 0.00 0.00 87 1016.5
20260906113514 12 79 0.0 0.0 0.00 0.00 0.00 87 1016.5
20260906113040 12 79 0.0 0.0 0.00 0.00 0.00 87 1016.5
20260906112514 12 79 0.0 0.0 0.00 0.00 0.00 86 1016.5
20260906112020 12 60 0.0 0.0 0.00 0.00 0.00 85 1016.5
20260906111534 12 60 0.0 0.0 0.00 0.00 0.00 84 1016.5
20260906111003 12 60 0.0 0.0 0.00 0.00 0.00 83 1016.5
20260906110510 12 60 0.0 0.0 0.00 0.00 0.00 83 1016.5
20260906110015 12 60 0.0 0.0 0.00 0.00 0.00 82 1016.5
20260906105511 12 13 0.0 0.0 0.00 0.00 0.00 82 1016.4
20260906105012 12 13 0.0 0.0 0.00 0.00 0.00 82 1016.3
20260906104518 12 22 0.0 0.0 0.00 0.00 0.00 82 1016.3
20260906104010 12 17 0.0 0.0 0.00 0.00 0.00 82 1016.3
20260906103511 12 19 0.0 0.0 0.00 0.00 0.00 82 1016.3
20260906103023 12 19 0.0 0.0 0.00 0.00 0.00 82 1016.2
20260906102512 12 19 0.0 0.0 0.00 0.00 0.00 82 1016.3
20260906102016 12 19 0.0 0.0 0.00 0.00 0.00 81 1016.3
20260906101531 12 19 0.0 0.0 0.00 0.00 0.00 81 1016.4
20260906101014 13 19 0.0 0.0 0.00 0.00 0.00 81 1016.4
20260906100516 12 19 0.0 1.6 0.00 0.00 0.00 81 1016.3
20260906100030 12 19 0.0 3.2 0.00 0.00 0.00 81 1016.3
20260906095507 12 19 0.0 3.2 0.00 0.00 0.00 80 1016.3
20260906095008 13 19 0.0 3.2 0.00 0.00 0.00 80 1016.4
20260906094524 13 19 0.0 3.2 0.00 0.00 0.00 80 1016.4
20260906094008 13 18 0.0 3.2 0.00 0.00 0.00 80 1016.4
20260906093512 12 18 0.0 3.2 0.00 0.00 0.00 81 1016.3
20260906093023 12 331 0.0 3.2 0.00 0.00 0.00 80 1016.3
20260906092513 12 335 0.0 3.2 0.00 0.00 0.00 80 1016.3
20260906092013 12 335 0.0 3.2 0.00 0.00 0.00 80 1016.4
20260906091530 12 9 0.0 0.0 0.00 0.00 0.00 80 1016.4
20260906091016 12 5 0.0 0.0 0.00 0.00 0.00 79 1016.5
20260906090506 12 5 0.0 0.0 0.00 0.00 0.00 78 1016.4
20260906090008 13 5 0.0 0.0 0.00 0.00 0.00 78 1016.3
20260906085508 13 9 0.0 0.0 0.00 0.00 0.00 77 1016.3
20260906085010 13 5 0.0 0.0 0.00 0.00 0.00 77 1016.3
20260906084520 13 5 0.0 0.0 0.00 0.00 0.00 76 1016.2
20260906084010 13 5 0.0 3.2 0.00 0.00 0.00 76 1016.3
20260906083511 13 9 0.0 3.2 0.00 0.00 0.00 76 1016.2
20260906083024 13 352 0.0 1.6 0.00 0.00 0.00 76 1016.3
20260906082514 13 9 0.0 1.6 0.00 0.00 0.00 76 1016.3
20260906082001 13 9 0.0 0.0 0.00 0.00 0.00 76 1016.4
20260906081515 13 9 0.0 0.0 0.00 0.00 0.00 75 1016.4
20260906081005 13 9 0.0 0.0 0.00 0.00 0.00 74 1016.4
20260906080506 13 9 0.0 0.0 0.00 0.00 0.00 75 1016.4
20260906080004 13 9 0.0 4.8 0.00 0.00 0.00 75 1016.4
20260906075504 13 9 1.6 4.8 0.00 0.00 0.00 77 1016.4
20260906075004 12 9 0.0 0.0 0.00 0.00 0.00 79 1016.4
20260906074508 12 9 0.0 0.0 0.00 0.00 0.00 78 1016.4
20260906074007 12 9 0.0 0.0 0.00 0.00 0.00 78 1016.4
20260906073508 12 5 0.0 0.0 0.00 0.00 0.00 79 1016.6
20260906073016 12 9 0.0 0.0 0.00 0.00 0.00 79 1016.6
20260906072509 12 9 0.0 0.0 0.00 0.00 0.00 78 1016.6
20260906072013 12 9 0.0 0.0 0.00 0.00 0.00 78 1016.7
20260906071523 12 5 0.0 0.0 0.00 0.00 0.00 78 1016.6
20260906071012 13 9 0.0 0.0 0.00 0.00 0.00 77 1016.7
20260906070505 13 9 0.0 0.0 0.00 0.00 0.00 76 1016.7
20260906070006 13 9 0.0 0.0 0.00 0.00 0.00 76 1016.7
20260906065504 13 9 0.0 0.0 0.00 0.00 0.00 76 1016.7
20260906065006 13 9 0.0 0.0 0.00 0.00 0.00 75 1016.7
20260906064510 13 9 0.0 0.0 0.00 0.00 0.00 75 1016.8
20260906064008 13 9 0.0 0.0 0.00 0.00 0.00 74 1016.7
20260906063504 14 9 0.0 0.0 0.00 0.00 0.00 73 1016.7
20260906063013 14 9 0.0 0.0 0.00 0.00 0.00 73 1016.7
20260906062507 14 9 0.0 0.0 0.00 0.00 0.00 73 1016.7
20260906062008 13 5 0.0 0.0 0.00 0.00 0.00 74 1016.7
20260906061522 13 9 0.0 0.0 0.00 0.00 0.00 74 1016.8
20260906061010 13 9 0.0 0.0 0.00 0.00 0.00 75 1016.7
20260906060512 13 9 0.0 0.0 0.00 0.00 0.00 75 1016.7
20260906060029 13 5 0.0 0.0 0.00 0.00 0.00 75 1016.8
20260906055515 13 9 0.0 0.0 0.00 0.00 0.00 74 1016.8
20260906055004 13 9 0.0 0.0 0.00 0.00 0.00 73 1017.0
20260906054507 13 9 0.0 0.0 0.00 0.00 0.00 73 1017.0
20260906054003 13 9 0.0 0.0 0.00 0.00 0.00 72 1017.0
20260906053507 14 9 0.0 0.0 0.00 0.00 0.00 71 1017.0
20260906053009 14 9 0.0 0.0 0.00 0.00 0.00 70 1016.9
20260906052508 15 9 0.0 0.0 0.00 0.00 0.00 69 1016.9
20260906052008 15 5 0.0 0.0 0.00 0.00 0.00 68 1017.0
20260906051516 15 9 0.0 0.0 0.00 0.00 0.00 67 1017.0
20260906051012 15 9 0.0 0.0 0.00 0.00 0.00 66 1017.0
20260906050512 15 9 0.0 0.0 0.00 0.00 0.00 66 1017.0
20260906050047 15 5 0.0 3.2 0.00 0.00 0.00 67 1017.1
20260906045513 15 9 0.0 3.2 0.00 0.00 0.00 66 1017.0
20260906045015 15 9 0.0 0.0 0.00 0.00 0.00 66 1017.0
20260906044529 15 9 0.0 0.0 0.00 0.00 0.00 65 1017.0
20260906044017 15 9 0.0 1.6 0.00 0.00 0.00 64 1017.0
20260906043503 15 9 0.0 3.2 0.00 0.00 0.00 66 1017.0
20260906043009 15 9 0.0 3.2 0.00 0.00 0.00 67 1017.0
20260906042504 15 344 0.0 0.0 0.00 0.00 0.00 65 1017.1
20260906042008 15 344 0.0 0.0 0.00 0.00 0.00 65 1017.1
20260906041517 15 344 0.0 0.0 0.00 0.00 0.00 66 1017.2
20260906041008 15 344 0.0 0.0 0.00 0.00 0.00 66 1017.2
20260906040508 15 344 0.0 0.0 0.00 0.00 0.00 65 1017.2
20260906040018 15 344 0.0 0.0 0.00 0.00 0.00 65 1017.1
20260906035511 15 344 0.0 0.0 0.00 0.00 0.00 67 1017.1
20260906035013 15 344 0.0 0.0 0.00 0.00 0.00 68 1017.1
20260906034536 15 344 0.0 0.0 0.00 0.00 0.00 69 1017.1
20260906034014 15 344 0.0 0.0 0.00 0.00 0.00 70 1017.0
20260906033512 15 344 0.0 3.2 0.00 0.00 0.00 70 1016.9
20260906033031 15 344 0.0 3.2 0.00 0.00 0.00 69 1016.8
20260906032514 15 344 0.0 0.0 0.00 0.00 0.00 69 1016.8
20260906032007 15 344 0.0 0.0 0.00 0.00 0.00 69 1016.8
20260906031509 15 344 0.0 0.0 0.00 0.00 0.00 70 1016.8
20260906031008 15 344 0.0 0.0 0.00 0.00 0.00 69 1016.7
20260906030512 16 344 0.0 1.6 0.00 0.00 0.00 68 1016.8
20260906030016 16 344 0.0 1.6 0.00 0.00 0.00 67 1016.8
20260906025511 16 344 0.0 0.0 0.00 0.00 0.00 66 1016.7
20260906025015 16 344 0.0 0.0 0.00 0.00 0.00 66 1016.7
20260906024522 16 344 0.0 0.0 0.00 0.00 0.00 67 1016.7
20260906024014 17 344 0.0 0.0 0.00 0.00 0.00 67 1016.6
20260906023513 17 344 0.0 0.0 0.00 0.00 0.00 66 1016.6
20260906023027 17 344 0.0 3.2 0.00 0.00 0.00 64 1016.6
20260906022516 17 344 0.0 3.2 0.00 0.00 0.00 64 1016.6
20260906022015 17 344 0.0 0.0 0.00 0.00 0.00 63 1016.6
20260906021530 17 344 0.0 0.0 0.00 0.00 0.00 62 1016.6
20260906021019 17 344 0.0 0.0 0.00 0.00 0.00 61 1016.6
20260906020511 18 344 0.0 3.2 0.00 0.00 0.00 59 1016.6
20260906020016 18 344 0.0 3.2 0.00 0.00 0.00 58 1016.7
20260906015511 18 344 0.0 0.0 0.00 0.00 0.00 58 1016.7
20260906015011 18 344 0.0 3.2 0.00 0.00 0.00 57 1016.6
20260906014521 18 344 0.0 4.8 0.00 0.00 0.00 56 1016.6
20260906014012 19 344 1.6 4.8 0.00 0.00 0.00 55 1016.6
20260906013514 19 323 1.6 4.8 0.00 0.00 0.00 54 1016.6
20260906013023 19 311 0.0 6.4 0.00 0.00 0.00 54 1016.6
20260906012515 19 345 0.0 6.4 0.00 0.00 0.00 53 1016.6
20260906012014 19 338 0.0 4.8 0.00 0.00 0.00 52 1016.6
20260906011530 19 290 1.6 4.8 0.00 0.00 0.00 51 1016.6
20260906011017 19 298 0.0 3.2 0.00 0.00 0.00 52 1016.6
20260906010519 19 311 0.0 4.8 0.00 0.00 0.00 52 1016.6
20260906010031 19 317 0.0 6.4 0.00 0.00 0.00 51 1016.6
20260906005517 19 283 3.2 6.4 0.00 0.00 0.00 51 1016.6
20260906005010 19 290 1.6 6.4 0.00 0.00 0.00 50 1016.5
20260906004514 19 40 0.0 6.4 0.00 0.00 0.00 50 1016.6
20260906004012 19 298 1.6 8.0 0.00 0.00 0.00 49 1016.6
20260906003516 19 289 0.0 8.0 0.00 0.00 0.00 50 1016.5
20260906003005 19 286 1.6 6.4 0.00 0.00 0.00 49 1016.5
20260906002505 19 250 1.6 6.4 0.00 0.00 0.00 48 1016.5
20260906002004 20 269 3.2 6.4 0.00 0.00 0.00 49 1016.4
20260906001504 20 294 0.0 8.0 0.00 0.00 0.00 50 1016.5
20260906001004 20 321 3.2 8.0 0.00 0.00 0.00 52 1016.5
20260906000504 20 340 1.6 8.0 0.00 0.00 0.00 53 1016.5
20260906000007 20 319 1.6 8.0 0.00 0.00 0.00 53 1016.5
20260905235506 20 281 3.2 11.3 0.00 0.00 0.00 53 1016.5
20260905235006 20 282 3.2 11.3 0.00 0.00 0.00 51 1016.6
20260905234510 20 308 3.2 9.7 0.00 0.00 0.00 51 1016.5
20260905234012 20 36 1.6 9.7 0.00 0.00 0.00 51 1016.6
20260905233512 21 285 3.2 9.7 0.00 0.00 0.00 50 1016.6
20260905233026 20 57 0.0 4.8 0.00 0.00 0.00 52 1016.6
20260905232519 20 173 1.6 6.4 0.00 0.00 0.00 52 1016.6
20260905232013 20 262 1.6 6.4 0.00 0.00 0.00 53 1016.6
20260905231504 20 37 3.2 8.0 0.00 0.00 0.00 55 1016.6
20260905231004 20 278 3.2 8.0 0.00 0.00 0.00 55 1016.6
20260905230503 20 288 1.6 6.4 0.00 0.00 0.00 59 1016.6
20260905230005 19 63 1.6 9.7 0.00 0.00 0.00 61 1016.6
20260905225504 19 120 3.2 9.7 0.00 0.00 0.00 62 1016.7
20260905225006 19 167 1.6 4.8 0.00 0.00 0.00 60 1016.7
20260905224513 19 313 0.0 4.8 0.00 0.00 0.00 59 1016.7
20260905224009 20 306 1.6 6.4 0.00 0.00 0.00 60 1016.9
20260905223507 19 350 3.2 6.4 0.00 0.00 0.00 55 1016.9
20260905223017 19 19 0.0 6.4 0.00 0.00 0.00 52 1017.0
20260905222512 18 122 1.6 11.3 0.00 0.00 0.00 56 1016.9
20260905222014 18 82 4.8 11.3 0.00 0.00 0.00 56 1017.0
20260905221523 19 70 3.2 6.4 0.00 0.00 0.00 56 1017.1
20260905221012 18 183 1.6 4.8 0.00 0.00 0.00 57 1017.1
20260905220504 18 302 1.6 6.4 0.00 0.00 0.00 58 1017.3
20260905220007 18 196 3.2 6.4 0.00 0.00 0.00 62 1017.4
20260905215506 18 144 1.6 9.7 0.00 0.00 0.00 64 1017.4
20260905215003 17 115 3.2 9.7 0.00 0.00 0.00 69 1017.4
20260905214508 17 153 3.2 6.4 0.00 0.00 0.00 70 1017.4
20260905214006 17 74 3.2 6.4 0.00 0.00 0.00 70 1017.5
20260905213510 17 113 3.2 6.4 0.00 0.00 0.00 69 1017.5
20260905213018 17 178 0.0 6.4 0.00 0.00 0.00 69 1017.5
20260905212510 17 161 1.6 6.4 0.00 0.00 0.00 70 1017.6
20260905212014 17 184 1.6 6.4 0.00 0.00 0.00 71 1017.6
20260905211518 17 90 3.2 6.4 0.00 0.00 0.00 70 1017.6
20260905211014 17 89 3.2 4.8 0.00 0.00 0.00 69 1017.7
20260905210515 17 184 1.6 6.4 0.00 0.00 0.00 69 1017.7
20260905210031 16 168 3.2 6.4 0.00 0.00 0.00 69 1017.7
20260905205514 17 152 3.2 4.8 0.00 0.00 0.00 68 1017.6
20260905205006 17 114 0.0 4.8 0.00 0.00 0.00 71 1017.7
20260905204510 17 148 3.2 6.4 0.00 0.00 0.00 67 1017.8
20260905204007 16 208 1.6 6.4 0.00 0.00 0.00 69 1017.7
20260905203505 16 213 0.0 4.8 0.00 0.00 0.00 68 1017.8
20260905203014 16 135 0.0 4.8 0.00 0.00 0.00 68 1017.8
20260905202506 16 69 1.6 4.8 0.00 0.00 0.00 68 1017.9
20260905202014 16 151 0.0 3.2 0.00 0.00 0.00 68 1017.9
20260905201517 16 181 1.6 3.2 0.00 0.00 0.00 68 1017.9
20260905201011 16 192 0.0 6.4 0.00 0.00 0.00 71 1017.9
20260905200514 16 171 0.0 6.4 0.00 0.00 0.00 70 1017.9
20260905200035 16 188 1.6 4.8 0.00 0.00 0.00 70 1017.9
20260905195513 16 135 3.2 4.8 0.00 0.00 0.00 69 1017.9